Benbecula, United Kingdom

9:49 AM BST on July 25, 2017 (GMT +0100)
Benbecula

Weather History for EGPL - November, 2013

Change the Weather History Date:

Tuesday, November 19, 2013

  Actual Average Record
Temperature  
Mean Temperature 39 °F -  
Max Temperature 46 °F 45 °F 55 °F (2011)
Min Temperature 32 °F 40 °F 32 °F (1996)
Degree Days  
Heating Degree Days 26    
Moisture  
Dew Point 35 °F    
Average Humidity 80    
Maximum Humidity 93    
Minimum Humidity 60    
Precipitation  
Precipitation 0.00 in - - ()
Sea Level Pressure  
Sea Level Pressure 29.82 in    
Wind  
Wind Speed 17 mph ()    
Max Wind Speed 38 mph    
Max Gust Speed 43 mph    
Visibility 5.7 miles    
Events Rain    
Averages and records for this station are not official NWS values.
T = Trace of Precipitation, MM = Missing Value Source: Averaged Metar Reports

Daily Weather History Graph

Daily Weather History Graph

Search for Another Location

Airport or City:

Trip Planner

Search our weather history database for the weather conditions in past years. The results will help you decide how hot, cold, wet, or windy it might be!

Date:

Astronomy

Nov. 19, 2013 Rise Set
Actual Time 8:22 AM GMT 4:07 PM GMT
Civil Twilight 7:36 AM GMT 4:52 PM GMT
Nautical Twilight 6:48 AM GMT 5:40 PM GMT
Astronomical Twilight 6:02 AM GMT 6:26 PM GMT
Moon 5:42 PM GMT (11/19) 9:54 AM GMT (11/19)
Length of Visible Light 9h 15m
Length of Day
7h 44m
Full, 97% of the Moon is Illuminated
Nov 19
Full
Nov 25
Last Quarter
Dec 3
New
Dec 9
First Quarter
Dec 17
Full

Hourly Weather History & Observations

Time (GMT) Temp. Windchill Dew Point Humidity Pressure Visibility Wind Dir Wind Speed Gust Speed Precip Events Conditions
12:20 AM 33.8 °F 27.7 °F 28.4 °F 81% 29.80 in 6.2 mi NNW 6.9 mph - N/A   Unknown
12:50 AM 37.4 °F 29.8 °F 30.2 °F 75% 29.80 in 6.2 mi NW 11.5 mph - N/A   Partly Cloudy
1:20 AM 35.6 °F 24.2 °F 32.0 °F 87% 29.83 in 6.2 mi North 21.9 mph - N/A   Partly Cloudy
1:50 AM 32.0 °F 18.4 °F 30.2 °F 93% 29.86 in 1.3 mi North 26.5 mph - N/A   Scattered Clouds
2:20 AM 32.0 °F 21.2 °F 30.2 °F 93% 29.89 in 6.2 mi NNE 16.1 mph - N/A   Unknown
2:50 AM 32.0 °F 20.5 °F 30.2 °F 93% 29.89 in 1.8 mi North 18.4 mph - N/A   Mostly Cloudy
3:20 AM 33.8 °F 25.3 °F 32.0 °F 93% 29.89 in 6.2 mi NNE 11.5 mph - N/A   Unknown
3:50 AM 33.8 °F 27.0 °F 32.0 °F 93% 29.92 in 6.2 mi North 8.1 mph - N/A   Partly Cloudy
4:20 AM 33.8 °F 25.8 °F 30.2 °F 87% 29.95 in 6.2 mi North 10.4 mph - N/A   Partly Cloudy
4:50 AM 33.8 °F 20.8 °F 32.0 °F 93% 29.98 in 1.3 mi NNW 26.5 mph - N/A   Mostly Cloudy
5:20 AM 33.8 °F 25.3 °F 32.0 °F 93% 29.98 in 6.2 mi North 11.5 mph - N/A   Unknown
5:50 AM 35.6 °F 24.5 °F 32.0 °F 87% 29.98 in 6.2 mi NNW 20.7 mph - N/A   Unknown
6:20 AM 35.6 °F 24.5 °F 32.0 °F 87% 29.98 in 6.2 mi NNW 20.7 mph - N/A   Partly Cloudy
6:50 AM 37.4 °F 29.3 °F 30.2 °F 75% 29.98 in 6.2 mi NW 12.7 mph - N/A   Scattered Clouds
7:20 AM 37.4 °F 27.5 °F 26.6 °F 65% 30.01 in 6.2 mi NW 18.4 mph - N/A   Scattered Clouds
7:50 AM 37.4 °F 27.5 °F 24.8 °F 60% 30.01 in 6.2 mi NW 18.4 mph - N/A   Mostly Cloudy
8:20 AM 37.4 °F 31.4 °F 28.4 °F 70% 30.01 in 6.2 mi North 8.1 mph - N/A   Mostly Cloudy
8:50 AM 37.4 °F 28.5 °F 24.8 °F 60% 30.01 in 6.2 mi NNW 15.0 mph - N/A   Mostly Cloudy
9:20 AM 39.2 °F 33.6 °F 26.6 °F 61% 30.01 in 6.2 mi NNW 8.1 mph - N/A   Partly Cloudy
9:50 AM 39.2 °F 32.5 °F 26.6 °F 61% 30.01 in 6.2 mi WNW 10.4 mph - N/A   Partly Cloudy
10:20 AM 39.2 °F 32.0 °F 28.4 °F 65% 30.01 in 6.2 mi West 11.5 mph - N/A   Partly Cloudy
10:50 AM 39.2 °F 31.2 °F 30.2 °F 70% 29.98 in 6.2 mi West 13.8 mph - N/A   Partly Cloudy
11:20 AM 41.0 °F 33.5 °F 30.2 °F 65% 29.98 in 6.2 mi West 13.8 mph - N/A   Partly Cloudy
11:50 AM 41.0 °F 33.9 °F 32.0 °F 70% 29.98 in 6.2 mi WSW 12.7 mph - N/A   Partly Cloudy
12:20 PM 42.8 °F 35.4 °F 32.0 °F 66% 29.95 in 6.2 mi WSW 15.0 mph - N/A   Partly Cloudy
12:50 PM 42.8 °F 35.8 °F 32.0 °F 66% 29.95 in 6.2 mi WSW 13.8 mph - N/A   Partly Cloudy
1:20 PM 42.8 °F 34.8 °F 33.8 °F 70% 29.92 in 6.2 mi SW 17.3 mph - N/A   Scattered Clouds
1:50 PM 42.8 °F 33.5 °F 35.6 °F 76% 29.89 in 6.2 mi SW 23.0 mph - N/A Rain Light Rain
2:20 PM 42.8 °F 33.8 °F 37.4 °F 81% 29.86 in 6.2 mi SW 21.9 mph - N/A Rain Light Rain
2:50 PM 42.8 °F 33.1 °F 37.4 °F 81% 29.83 in 6.2 mi SW 25.3 mph - N/A Rain Light Rain
3:20 PM 42.8 °F 33.1 °F 39.2 °F 87% 29.80 in 5.6 mi SW 25.3 mph - N/A Rain Light Rain
3:50 PM 44.6 °F 35.1 °F 41.0 °F 87% 29.77 in 6.2 mi SW 27.6 mph - N/A Rain Light Rain
4:20 PM 44.6 °F 35.7 °F 39.2 °F 81% 29.74 in 6.2 mi WSW 24.2 mph - N/A Rain Light Rain
4:50 PM 44.6 °F 36.9 °F 41.0 °F 87% 29.74 in 6.2 mi West 18.4 mph - N/A Rain Light Rain
5:20 PM 46.4 °F 37.5 °F 41.0 °F 81% 29.71 in 6.2 mi West 27.6 mph - N/A Rain Light Rain
5:50 PM 44.6 °F 35.5 °F 41.0 °F 87% 29.68 in 6.2 mi West 25.3 mph - N/A Rain Light Rain
6:20 PM 46.4 °F 37.5 °F 42.8 °F 87% 29.65 in 6.2 mi West 27.6 mph - N/A Rain Light Rain
6:50 PM 46.4 °F 37.2 °F 41.0 °F 81% 29.65 in 6.2 mi West 29.9 mph 42.6 mph N/A Rain Light Rain
7:20 PM 44.6 °F 35.3 °F 42.8 °F 93% 29.62 in 5.6 mi West 26.5 mph - N/A   Partly Cloudy
7:50 PM 46.4 °F 37.2 °F 42.8 °F 87% 29.62 in 4.3 mi West 29.9 mph - N/A   Partly Cloudy
8:20 PM 46.4 °F 36.9 °F 41.0 °F 81% 29.59 in 6.2 mi West 32.2 mph - N/A   Scattered Clouds
8:50 PM 46.4 °F 37.0 °F 42.8 °F 87% 29.59 in 3.1 mi West 31.1 mph - N/A   Scattered Clouds
9:20 PM 44.6 °F 34.7 °F 42.8 °F 93% 29.56 in - West 29.9 mph - N/A   Scattered Clouds
9:50 PM 46.4 °F 37.2 °F 42.8 °F 87% 29.53 in 6.2 mi West 29.9 mph - N/A   Partly Cloudy
10:20 PM 46.4 °F 37.4 °F 41.0 °F 81% 29.50 in 6.2 mi West 28.8 mph - N/A   Partly Cloudy
10:50 PM 46.4 °F 37.0 °F 42.8 °F 87% 29.50 in 5.0 mi West 31.1 mph - N/A   Scattered Clouds
11:20 PM 46.4 °F 37.5 °F 42.8 °F 87% 29.47 in 6.2 mi West 27.6 mph - N/A   Scattered Clouds
11:50 PM 46.4 °F 36.1 °F 39.2 °F 76% 29.47 in 6.2 mi WNW 38.0 mph - N/A   Partly Cloudy